Regional Weather Roundup
Issued by NWS

Home | Current Version | Previous Version | Text Only | Print | Product List | Glossary On
Versions: 1 2 3 4 5 6 7 8 9 10 11 12 13 14 15 16 17 18 19 20 21 22 23 24 25 26 27 28 29 30 31 32 33 34 35 36 37 38 39 40 41 42 43 44 45 46 47 48 49 50
000
ASUS44 KMEG 260010
RWRTN
TENNESSEE HOURLY STATE WEATHER ROUNDUP
NATIONAL WEATHER SERVICE MEMPHIS TN
700 PM CDT SAT APR 25 2015

TNZ002-004-019-021-049-052-054-088>092-260100-
WEST TENNESSEE

CITY           SKY/WX    TMP DP  RH WIND       PRES   REMARKS
MEMPHIS INTL   PTCLDY    78  59  51 SW10      29.56F
NWS MEMPHIS      N/A     79 N/A N/A MISG        N/A
JACKSON        CLEAR     77  56  48 W8        29.54R
DYERSBURG      CLEAR     75  52  43 SW13G20   29.53R
UNION CITY     CLEAR     75  32  20 SW10      29.50R
PARIS          CLEAR     73  55  53 SW15      29.51R
LEXINGTON      CLEAR     79  52  38 SW12      29.52R
SAVANNAH       CLEAR     79  32  18 SW12      29.55S
$$

TNZ008-025-027-028-033-062-065-066-260100-
NORTH MIDDLE TENNESSEE

CITY           SKY/WX    TMP DP  RH WIND       PRES   REMARKS
NASHVILLE      PTCLDY    79  60  52 S14G23    29.47F
CLARKSVILLE    CLEAR     78  54  43 W13G23    29.47R
SMYRNA         CLEAR     77  64  63 SW10G17   29.49F
COOKEVILLE     CLEAR     73  63  68 SW15      29.51F
CROSSVILLE     CLEAR     73  52  47 SW9       29.57F
$$

TNZ061-075-076-078-094-096-097-260100-
SOUTH MIDDLE TENNESSEE

CITY           SKY/WX    TMP DP  RH WIND       PRES   REMARKS
FAYETTEVILLE   PTCLDY    72  64  78 SW9       29.58F
TULLAHOMA      CLEAR     72  63  73 SW10      29.57F
WINCHESTER     CLEAR     73  64  73 SW8       29.58F
MCMINNVILLE    CLEAR     73  63  68 SW9       29.54F
COLUMBIA       CLEAR     75  32  20 SW15      29.51S
SHELBYVILLE    CLEAR     73  66  78 S13       29.55F
$$

TNZ017-018-042-046-047-260100-
NORTHEAST TENNESSEE

CITY           SKY/WX    TMP DP  RH WIND       PRES   REMARKS
TRI CITIES     PTCLDY    67  58  72 SW7       29.56F
ELIZABETHTON   PTCLDY    66  55  68 W6        29.57S
$$

TNZ012-013-036-069-073-074-260100-
CENTRAL EAST TENNESSEE

CITY           SKY/WX    TMP DP  RH WIND       PRES   REMARKS
KNOXVILLE      PTCLDY    73  61  65 SW22G30   29.54F
OAK RIDGE      CLEAR     74  62  66 S6        29.54F
GATLINBURG     CLEAR     75  54  46 SW12      29.53S
MORRISTOWN     CLEAR     72  61  68 SW9       29.55F
$$

TNZ083-085-099-260100-
SOUTHEAST TENNESSEE

CITY           SKY/WX    TMP DP  RH WIND       PRES   REMARKS
CHATTANOOGA    MOCLDY    75  63  66 SW8       29.59F
$$

SKY/WX REPORTED AS FAIR MEANS FEW OR NO CLOUDS BELOW
12 THOUSAND FEET.




USA.gov is the U.S. government's official web portal to all federal, state and local government web resources and services.